TimeCDT,TemperatureF,Dew PointF,Humidity,Sea Level PressureIn,VisibilityMPH,Wind Direction,Wind SpeedMPH,Gust SpeedMPH,PrecipitationIn,Events,Conditions,WindDirDegrees,DateUTC
12:15 AM,66.2,42.3,42,29.97,10.0,South,17.3,21.9,N/A,,Clear,190,2013-05-15 05:15:00
12:35 AM,64.8,43.2,45,29.97,10.0,South,20.7,-,N/A,,Clear,180,2013-05-15 05:35:00
12:55 AM,64.6,43.9,47,29.98,10.0,South,18.4,25.3,N/A,,Clear,190,2013-05-15 05:55:00
1:15 AM,64.2,43.3,47,29.98,10.0,SSW,16.1,21.9,N/A,,Clear,200,2013-05-15 06:15:00
1:35 AM,63.3,43.2,48,29.97,10.0,SSW,13.8,21.9,N/A,,Clear,200,2013-05-15 06:35:00
1:55 AM,62.4,43.3,50,29.96,10.0,SSW,12.7,-,N/A,,Clear,200,2013-05-15 06:55:00
2:15 AM,61.9,43.5,51,29.95,10.0,SSW,10.4,-,N/A,,Clear,210,2013-05-15 07:15:00
2:35 AM,60.3,43.2,53,29.95,10.0,SSW,10.4,-,N/A,,Clear,200,2013-05-15 07:35:00
2:55 AM,59.7,43.7,55,29.95,10.0,SSW,10.4,-,N/A,,Clear,210,2013-05-15 07:55:00
3:15 AM,59.0,43.7,57,29.94,10.0,SSW,9.2,-,N/A,,Clear,200,2013-05-15 08:15:00
3:35 AM,58.8,43.5,57,29.95,10.0,SSW,10.4,-,N/A,,Clear,200,2013-05-15 08:35:00
3:55 AM,58.1,43.3,58,29.94,10.0,SSW,8.1,-,N/A,,Clear,210,2013-05-15 08:55:00
4:15 AM,56.8,43.2,60,29.93,10.0,SSW,5.8,-,N/A,,Clear,200,2013-05-15 09:15:00
4:35 AM,54.9,42.8,64,29.93,10.0,South,5.8,-,N/A,,Clear,190,2013-05-15 09:35:00
4:55 AM,55.4,43.2,63,29.93,10.0,South,8.1,-,N/A,,Clear,190,2013-05-15 09:55:00
5:15 AM,55.8,43.7,64,29.93,10.0,SSW,3.5,-,N/A,,Clear,210,2013-05-15 10:15:00
5:35 AM,55.6,43.9,65,29.93,10.0,SSW,3.5,-,N/A,,Clear,200,2013-05-15 10:35:00
5:55 AM,55.4,44.4,67,29.93,10.0,SW,4.6,-,N/A,,Clear,220,2013-05-15 10:55:00
6:15 AM,55.0,44.8,68,29.94,10.0,South,10.4,-,N/A,,Clear,180,2013-05-15 11:15:00
6:35 AM,56.7,45.7,67,29.93,10.0,SSW,11.5,-,N/A,,Clear,200,2013-05-15 11:35:00
6:55 AM,57.4,46.4,67,29.93,10.0,SSW,12.7,-,N/A,,Clear,200,2013-05-15 11:55:00
7:15 AM,57.4,46.4,67,29.93,10.0,SSW,11.5,-,N/A,,Clear,200,2013-05-15 12:15:00
7:35 AM,57.6,46.6,67,29.94,10.0,South,10.4,-,N/A,,Clear,190,2013-05-15 12:35:00
7:55 AM,58.6,47.3,66,29.93,10.0,South,12.7,-,N/A,,Clear,190,2013-05-15 12:55:00
8:15 AM,60.1,47.8,64,29.93,10.0,SSW,12.7,19.6,N/A,,Clear,200,2013-05-15 13:15:00
8:35 AM,61.0,48.4,63,29.93,10.0,SSW,13.8,19.6,N/A,,Clear,210,2013-05-15 13:35:00
8:55 AM,63.0,49.1,61,29.93,10.0,SSW,16.1,24.2,N/A,,Clear,210,2013-05-15 13:55:00
9:15 AM,63.5,48.9,59,29.92,10.0,SSW,15.0,-,N/A,,Clear,210,2013-05-15 14:15:00
9:35 AM,65.3,48.9,55,29.93,10.0,SSW,16.1,20.7,N/A,,Clear,210,2013-05-15 14:35:00
9:55 AM,66.9,48.7,52,29.93,10.0,SSW,16.1,-,N/A,,Clear,210,2013-05-15 14:55:00
10:15 AM,68.9,48.4,48,29.91,10.0,SSW,13.8,20.7,N/A,,Clear,210,2013-05-15 15:15:00
10:35 AM,70.7,47.3,43,29.91,10.0,SSW,12.7,19.6,N/A,,Clear,210,2013-05-15 15:35:00
10:55 AM,73.0,46.8,39,29.91,10.0,SW,11.5,-,N/A,,Clear,220,2013-05-15 15:55:00
11:15 AM,74.5,45.3,35,29.90,10.0,SSW,6.9,-,N/A,,Clear,200,2013-05-15 16:15:00
11:35 AM,77.0,45.0,32,29.90,10.0,SSW,6.9,-,N/A,,Clear,210,2013-05-15 16:35:00
11:55 AM,78.4,44.4,30,29.90,10.0,SSW,8.1,-,N/A,,Clear,210,2013-05-15 16:55:00
12:15 PM,77.9,43.5,29,29.90,10.0,South,6.9,-,N/A,,Clear,170,2013-05-15 17:15:00
12:35 PM,80.6,45.0,28,29.89,10.0,SSE,6.9,-,N/A,,Clear,150,2013-05-15 17:35:00
12:55 PM,79.9,43.7,28,29.89,10.0,SSE,5.8,-,N/A,,Clear,160,2013-05-15 17:55:00
1:15 PM,80.8,42.8,26,29.88,10.0,South,4.6,-,N/A,,Clear,170,2013-05-15 18:15:00
1:35 PM,83.3,41.7,23,29.87,10.0,South,10.4,-,N/A,,Clear,190,2013-05-15 18:35:00
1:55 PM,84.0,40.6,22,29.86,10.0,South,10.4,16.1,N/A,,Clear,170,2013-05-15 18:55:00
2:15 PM,85.5,39.2,19,29.85,10.0,SSW,9.2,19.6,N/A,,Clear,200,2013-05-15 19:15:00
2:35 PM,86.0,34.5,16,29.85,10.0,SSW,10.4,17.3,N/A,,Clear,210,2013-05-15 19:35:00
2:55 PM,86.4,30.9,14,29.84,10.0,South,10.4,16.1,N/A,,Clear,190,2013-05-15 19:55:00
3:15 PM,86.4,35.4,16,29.83,10.0,SE,6.9,19.6,N/A,,Clear,140,2013-05-15 20:15:00
3:35 PM,87.1,32.0,14,29.82,10.0,SSE,4.6,-,N/A,,Clear,160,2013-05-15 20:35:00
3:55 PM,87.3,32.7,14,29.82,10.0,South,9.2,-,N/A,,Clear,170,2013-05-15 20:55:00
4:15 PM,88.2,32.2,14,29.81,10.0,South,11.5,16.1,N/A,,Clear,170,2013-05-15 21:15:00
4:35 PM,88.2,32.0,13,29.80,10.0,WSW,6.9,-,N/A,,Clear,240,2013-05-15 21:35:00
4:55 PM,88.2,32.0,13,29.80,10.0,SW,6.9,-,N/A,,Clear,230,2013-05-15 21:55:00
5:15 PM,88.5,31.6,13,29.78,10.0,SSE,6.9,-,N/A,,Clear,160,2013-05-15 22:15:00
5:35 PM,89.4,31.6,13,29.78,10.0,South,8.1,-,N/A,,Clear,170,2013-05-15 22:35:00
5:55 PM,89.2,31.3,13,29.78,10.0,NW,3.5,-,N/A,,Clear,320,2013-05-15 22:55:00
6:15 PM,89.6,31.8,13,29.77,10.0,South,6.9,-,N/A,,Clear,170,2013-05-15 23:15:00
6:35 PM,88.7,31.8,13,29.77,10.0,South,5.8,-,N/A,,Clear,170,2013-05-15 23:35:00
6:55 PM,88.2,32.0,13,29.77,10.0,Calm,Calm,-,N/A,,Clear,0,2013-05-15 23:55:00
7:15 PM,87.8,32.0,14,29.77,10.0,Calm,Calm,-,N/A,,Clear,0,2013-05-16 00:15:00
7:35 PM,87.4,32.0,14,29.77,10.0,Calm,Calm,-,N/A,,Clear,0,2013-05-16 00:35:00
7:55 PM,85.1,32.0,15,29.77,10.0,South,3.5,-,N/A,,Clear,180,2013-05-16 00:55:00
8:15 PM,84.6,32.0,15,29.78,10.0,SW,3.5,-,N/A,,Clear,220,2013-05-16 01:15:00
8:35 PM,82.9,31.6,16,29.80,5.0,West,8.1,-,N/A,,Haze,280,2013-05-16 01:35:00
8:55 PM,79.9,31.1,17,29.81,10.0,NNW,9.2,-,N/A,,Clear,340,2013-05-16 01:55:00
9:15 PM,79.5,30.4,17,29.80,10.0,North,9.2,-,N/A,,Clear,360,2013-05-16 02:15:00
9:35 PM,76.3,31.1,19,29.81,7.0,North,3.5,-,N/A,,Clear,350,2013-05-16 02:35:00
9:55 PM,72.7,31.5,22,29.82,10.0,Calm,Calm,-,N/A,,Clear,0,2013-05-16 02:55:00
10:15 PM,74.5,31.8,21,29.83,10.0,SSW,5.8,-,N/A,,Clear,210,2013-05-16 03:15:00
10:35 PM,70.2,32.2,25,29.85,3.0,West,3.5,-,N/A,,Haze,280,2013-05-16 03:35:00
10:55 PM,68.9,32.5,26,29.85,10.0,NE,4.6,-,N/A,,Clear,50,2013-05-16 03:55:00
11:15 PM,72.5,32.5,23,29.86,10.0,ENE,9.2,-,N/A,,Clear,70,2013-05-16 04:15:00
11:35 PM,70.7,37.6,30,29.86,10.0,ESE,12.7,-,N/A,,Clear,110,2013-05-16 04:35:00
11:55 PM,68.7,39.2,34,29.85,10.0,ESE,8.1,-,N/A,,Clear,110,2013-05-16 04:55:00